Change the Weather History Date:

Saturday, April 6, 2013

  Actual Average Record
Temperature  
Mean Temperature 58 °F -  
Max Temperature 73 °F 72 °F 80 °F (2005)
Min Temperature 43 °F 51 °F 39 °F (2007)
Degree Days  
Heating Degree Days 7    
Month to date heating degree days 51  
Growing Degree Days 7 (Base 50)    
Moisture  
Dew Point 37 °F    
Average Humidity 52    
Maximum Humidity 96    
Minimum Humidity 20    
Precipitation  
Precipitation 0.00 in - - ()
Month to date precipitation 0.97  
Year to date precipitation 12.96  
Sea Level Pressure  
Sea Level Pressure 30.15 in    
Wind  
Wind Speed 5 mph (ESE)    
Max Wind Speed 15 mph    
Max Gust Speed 22 mph    
Visibility 10 miles    
Events      
Averages and records for this station are not official NWS values.
T = Trace of Precipitation, MM = Missing Value Source: NWS Daily Summary

Daily Weather History Graph

Daily Weather History Graph

Search for Another Location

Airport or City:

Trip Planner

Search our weather history database for the weather conditions in past years. The results will help you decide how hot, cold, wet, or windy it might be!

Date:

Astronomy

Apr. 06, 2013 Rise Set
Actual Time 7:08 AM EDT 7:52 PM EDT
Civil Twilight 6:43 AM EDT 8:17 PM EDT
Nautical Twilight 6:14 AM EDT 8:47 PM EDT
Astronomical Twilight 5:43 AM EDT 9:17 PM EDT
Moon 4:41 AM EDT (4/6) 4:29 PM EDT (4/6)
Length of Visible Light 13h 33m
Length of Day
12h 43m
Waning Crescent, 15% of the Moon is Illuminated
Apr 6
Waning Crescent
Apr 10
New
Apr 18
First Quarter
Apr 25
Full
May 2
Last Quarter

Hourly Weather History & Observations

Time (EDT) Temp. Windchill Dew Point Humidity Pressure Visibility Wind Dir Wind Speed Gust Speed Precip Events Conditions
12:53 AM 50.0 °F - 44.1 °F 80% 30.06 in 10.0 mi Calm Calm - N/A   Clear
1:53 AM 48.9 °F - 44.1 °F 83% 30.08 in 10.0 mi Calm Calm - N/A   Clear
2:53 AM 46.9 °F - 44.1 °F 90% 30.08 in 10.0 mi WNW 3.5 mph - N/A   Clear
3:53 AM 48.9 °F - 43.0 °F 80% 30.09 in 10.0 mi West 3.5 mph - N/A   Clear
4:53 AM 46.0 °F - 42.1 °F 86% 30.10 in 10.0 mi Calm Calm - N/A   Clear
5:53 AM 46.0 °F - 43.0 °F 89% 30.11 in 10.0 mi Calm Calm - N/A   Clear
6:53 AM 43.0 °F - 41.0 °F 93% 30.13 in 10.0 mi Calm Calm - N/A   Clear
7:53 AM 45.0 °F 41.2 °F 42.1 °F 90% 30.17 in 10.0 mi NNW 6.9 mph - N/A   Clear
8:53 AM 48.9 °F - 43.0 °F 80% 30.18 in 10.0 mi North 6.9 mph - N/A   Clear
9:53 AM 57.0 °F - 42.1 °F 57% 30.19 in 10.0 mi North 4.6 mph - N/A   Clear
10:53 AM 63.0 °F - 36.0 °F 37% 30.20 in 10.0 mi East 10.4 mph - N/A   Clear
11:53 AM 66.0 °F - 30.0 °F 26% 30.21 in 10.0 mi East 11.5 mph - N/A   Clear
12:53 PM 68.0 °F - 30.0 °F 24% 30.20 in 10.0 mi Variable 6.9 mph 16.1 mph N/A   Clear
1:53 PM 69.1 °F - 28.9 °F 22% 30.19 in 10.0 mi ESE 8.1 mph - N/A   Clear
2:53 PM 71.1 °F - 28.9 °F 21% 30.16 in 10.0 mi Calm Calm - N/A   Clear
3:53 PM 71.1 °F - 28.0 °F 20% 30.14 in 10.0 mi Calm Calm - N/A   Clear
4:53 PM 71.1 °F - 28.9 °F 21% 30.12 in 10.0 mi Variable 3.5 mph - N/A   Clear
5:53 PM 71.1 °F - 28.9 °F 21% 30.13 in 10.0 mi SE 6.9 mph - N/A   Clear
6:53 PM 71.1 °F - 32.0 °F 24% 30.14 in 10.0 mi SSE 8.1 mph - N/A   Clear
7:53 PM 68.0 °F - 34.0 °F 28% 30.15 in 10.0 mi South 5.8 mph - N/A   Clear
8:53 PM 66.0 °F - 34.0 °F 30% 30.16 in 10.0 mi SE 3.5 mph - N/A   Clear
9:53 PM 62.1 °F - 39.0 °F 43% 30.19 in 10.0 mi SSE 11.5 mph - N/A   Clear
10:53 PM 59.0 °F - 39.0 °F 48% 30.21 in 10.0 mi SSE 6.9 mph - N/A   Clear
11:53 PM 57.0 °F - 39.0 °F 51% 30.21 in 10.0 mi SE 4.6 mph - N/A   Clear